Powrót do katalogu

STARLINK-37280

AktywnyŁącznośćVLEO
NORAD 68511·PAYLOAD·🇺🇸 United States

Wystrzelony Mar 30, 2026 z Cape Canaveral Space Force Station

Loading…

Następne Przeloty (najbliższe 24 godziny)

TLE

ŚwieżeSource: CelesTrak SupGP

Epoka: Sep 15, 2026, 03:31 UTC

1 68511C 26068D   26258.14701389  .00039699  00000+0  11728-2 0  2583
2 68511  53.1587 318.7399 0001202  94.2572  67.4713 15.34374894    13

Śledź STARLINK-37280 w czasie rzeczywistym z AllMySat

Download on the App Store